Wind_Speed
28 28 28 26 25 24 23 23 23 23 23 22 22 22 22 21 21 21 20 20 19 18 18 18 18 19 19 19 19 18 18 19 19 20 20 20 21 21 21 22 22 22 22
29 28 28 26 26 25 24 24 24 24 23 23 23 23 23 23 22 21 21 21 20 19 19 20 20 19 20 19 19 19 19 20 20 21 21 21 21 21 21 22 22 23 23
29 28 28 28 26 25 24 24 25 24 24 24 24 23 24 23 23 22 22 22 22 21 21 21 21 20 20 20 20 21 21 21 21 21 21 21 22 22 22 22 23 23 23
29 29 29 29 27 26 25 25 25 25 24 24 24 23 24 24 23 23 23 23 23 22 22 22 22 21 21 21 21 21 22 21 21 21 22 22 22 22 22 22 23 23 23
30 29 28 28 27 26 26 25 25 25 25 24 24 23 24 23 23 23 23 23 23 23 23 22 22 22 21 22 22 22 21 22 22 22 22 23 23 22 22 22 22 22 23
31 31 30 29 27 26 27 27 27 26 26 25 25 24 24 24 23 23 23 23 23 24 23 23 22 22 22 22 22 22 22 22 23 23 23 23 23 22 21 21 21 22 23
31 31 31 30 29 28 27 28 28 28 28 28 26 25 25 25 24 24 23 23 24 24 23 23 23 22 22 22 23 23 23 22 23 23 23 23 23 23 22 22 22 23 23
30 30 30 30 30 29 29 29 30 30 29 29 27 27 27 26 25 25 24 24 25 24 24 23 23 23 24 24 24 24 24 24 24 24 23 23 24 24 24 23 23 23 24
30 29 30 30 30 30 30 29 30 30 29 28 28 28 27 26 25 25 25 25 25 25 24 24 24 24 24 25 25 25 25 25 25 25 24 24 25 25 24 24 24 24 24
30 30 30 30 30 30 30 30 30 30 29 29 28 27 26 26 25 25 25 25 25 25 24 25 25 25 25 25 25 25 25 25 25 25 25 25 26 25 24 24 24 24 25
30 31 30 30 30 30 30 30 30 29 29 29 28 27 27 26 25 25 25 25 25 25 25 25 25 25 26 26 26 26 26 26 26 26 25 25 25 25 25 24 24 24 24
31 32 32 31 30 30 30 31 31 30 30 30 29 28 27 26 26 25 25 25 26 26 26 26 26 26 27 27 27 27 27 27 27 26 26 26 26 26 25 25 24 24 24
30 31 31 30 30 30 31 31 31 30 30 31 30 30 30 29 28 27 27 27 27 27 27 28 28 28 28 28 28 28 28 27 27 27 27 27 27 26 26 26 25 25 24
29 29 29 30 30 31 31 31 31 31 30 31 31 31 31 30 29 28 28 28 28 28 28 28 28 29 29 28 28 28 28 28 28 27 27 27 27 27 27 27 26 25 25
27 27 28 29 29 29 30 30 31 31 31 31 30 31 31 31 30 29 29 29 29 30 30 30 30 30 30 30 29 29 29 29 29 28 29 28 28 27 27 27 26 26 25
25 26 27 27 28 28 29 29 30 30 30 30 30 30 30 30 30 29 29 29 30 31 32 31 31 30 30 30 29 30 30 30 29 29 29 29 28 27 27 27 26 26 25
24 25 26 26 27 28 28 29 29 30 30 30 29 29 30 30 30 29 29 29 30 31 31 31 30 30 30 31 31 31 31 31 31 31 30 29 29 28 28 28 27 26 25
22 23 23 25 26 26 27 27 28 28 29 29 29 29 29 29 29 29 30 30 31 31 31 31 31 31 31 32 32 32 32 31 31 31 30 29 29 28 28 28 27 26 25
21 21 22 22 23 24 25 25 26 27 27 28 28 28 28 28 29 29 30 31 32 32 31 31 31 31 31 32 32 32 32 32 31 31 30 30 29 29 28 28 28 27 26
19 20 20 21 22 22 22 24 25 27 27 27 27 27 27 28 28 29 30 30 31 31 31 30 30 30 30 31 31 31 31 31 31 30 30 30 30 29 29 29 29 28 27
18 19 19 20 21 22 22 22 23 24 24 25 25 25 26 27 27 28 28 29 30 30 30 30 31 31 31 31 31 31 30 30 30 30 30 30 30 30 29 29 28 28 28
17 18 19 20 21 21 21 21 23 23 23 24 24 25 26 26 26 26 27 27 27 28 29 29 30 30 30 30 30 30 29 29 29 28 29 29 30 30 30 29 29 28 28
17 18 19 20 20 20 19 21 21 22 23 24 24 25 25 25 25 25 26 26 26 26 26 27 27 27 28 28 28 28 28 29 29 28 28 29 29 29 29 29 29 28 28
16 16 17 19 20 19 19 20 21 21 22 23 24 24 24 25 25 25 24 24 24 24 25 25 26 26 27 27 27 27 27 28 28 28 28 29 29 29 29 29 28 28 28
15 16 16 18 19 19 19 20 21 21 22 22 23 23 24 24 24 24 25 25 25 25 24 25 25 25 25 25 25 26 26 27 27 28 28 28 28 28 28 28 28 28 28
15 16 17 18 19 20 20 20 21 21 21 22 23 23 24 24 24 24 24 25 24 24 23 23 23 23 23 23 23 24 25 26 26 27 27 27 27 26 26 27 27 27 27
Wind_Direction
257 259 260 262 261 259 258 255 256 259 261 263 264 265 266 266 268 271 273 274 276 277 278 281 283 284 284 283 282 282 284 286 287 288 287 282 282 282 281 281 281 280 278
255 257 258 259 260 261 258 256 255 257 260 263 265 264 264 263 265 268 271 273 275 275 277 278 280 282 284 283 284 285 286 287 288 287 286 284 282 282 281 282 282 282 279
254 254 255 257 259 259 258 255 254 256 260 262 264 264 264 265 267 270 272 274 275 275 277 278 279 278 281 282 284 285 286 287 288 286 285 283 282 281 280 280 281 281 280
254 253 255 255 256 257 255 254 253 257 260 264 266 267 268 267 267 269 272 273 275 275 277 277 278 279 280 281 283 284 286 287 288 286 284 283 283 282 282 281 281 281 280
256 255 255 255 254 255 256 255 254 256 258 262 266 267 267 267 267 268 270 272 273 275 277 277 276 278 280 282 283 284 286 287 287 286 284 283 283 283 282 282 281 280 280
256 256 256 256 253 254 255 256 255 256 258 261 265 266 266 266 267 269 269 270 273 274 276 276 276 277 279 282 284 285 286 286 286 286 284 283 283 282 282 283 282 280 279
256 254 254 255 255 254 253 254 254 256 258 261 264 264 265 266 267 268 268 269 271 274 276 277 277 278 280 282 285 286 288 289 287 285 285 283 283 283 283 283 282 281 281
257 255 254 255 254 252 253 254 255 255 258 261 262 264 264 264 265 265 267 268 269 271 274 276 277 279 280 282 284 285 286 288 288 288 286 284 284 283 283 282 282 280 281
254 254 254 254 254 252 251 253 255 257 258 259 261 263 262 262 263 264 266 266 267 270 272 274 276 277 279 281 282 283 284 286 287 287 285 284 284 284 283 282 282 280 280
252 252 253 254 253 251 250 251 253 254 255 256 258 260 260 260 263 266 266 266 267 269 271 273 275 276 277 279 280 281 282 283 284 285 284 283 283 283 283 283 283 281 280
253 252 252 251 251 250 251 251 252 252 253 255 257 257 258 260 264 267 268 267 268 269 271 273 275 276 278 278 280 281 281 281 281 284 285 285 286 284 284 285 285 283 282
253 252 250 249 249 249 250 250 253 253 255 257 259 258 258 260 264 266 268 269 268 270 272 274 276 277 278 279 279 280 280 281 281 282 284 285 285 285 285 286 286 286 283
252 251 250 248 248 250 251 252 253 254 256 258 259 259 259 261 263 265 268 268 267 269 272 273 275 276 277 277 277 278 279 280 281 281 282 283 283 283 283 284 285 285 285
251 251 250 249 250 251 252 252 253 253 256 257 258 260 260 262 263 265 267 268 269 270 272 274 275 277 277 276 276 277 279 279 280 280 281 281 282 282 281 283 283 284 285
251 252 251 250 249 250 252 253 253 253 255 256 257 260 261 262 264 266 266 268 269 271 273 274 275 277 277 278 278 278 278 279 281 281 281 281 282 282 282 283 283 284 283
251 252 251 248 248 248 250 251 251 252 253 256 258 261 262 262 264 266 268 269 271 272 272 273 274 274 275 276 276 277 277 278 278 280 281 282 281 281 280 281 283 283 284
253 253 250 248 248 249 249 250 252 252 254 257 259 262 263 263 266 266 268 269 273 274 273 273 273 273 273 275 276 276 276 276 277 278 279 279 280 279 278 279 280 280 282
255 254 252 252 251 251 251 253 254 254 256 258 260 261 263 264 265 266 267 269 272 274 273 273 273 273 273 274 275 275 275 275 276 277 277 277 278 278 278 277 278 278 281
255 253 252 252 252 252 252 254 254 256 259 260 261 261 263 264 264 266 267 269 271 273 273 273 273 274 274 274 275 276 275 274 275 274 275 275 276 277 276 276 277 276 278
255 254 253 252 252 253 255 257 256 258 260 261 261 262 265 265 266 267 268 270 272 272 271 271 272 274 275 275 274 275 274 274 273 272 273 274 275 276 276 277 277 276 276
256 256 256 254 255 257 260 260 259 259 260 262 262 264 267 267 269 270 271 271 270 270 270 270 271 273 273 274 273 273 272 272 273 273 273 273 274 275 278 278 277 275 275
259 259 258 255 257 259 260 260 262 262 263 265 266 269 271 272 272 272 273 272 271 271 271 271 272 272 272 273 272 272 272 271 272 273 273 273 273 275 275 275 276 275 274
263 260 259 258 258 260 261 262 263 264 265 267 269 271 272 272 272 273 274 274 272 271 272 273 274 274 273 273 272 271 271 271 272 273 273 273 274 275 274 274 273 273 273
265 264 263 261 262 262 261 262 264 266 267 268 269 271 273 273 273 273 273 274 273 274 275 275 275 275 275 274 273 272 272 272 274 274 273 273 273 274 274 273 272 273 273
268 267 267 268 266 265 264 264 266 267 268 268 269 271 273 273 273 272 272 272 273 273 274 276 276 276 275 276 276 274 274 275 276 276 275 273 273 273 273 272 271 271 272
270 269 269 270 268 267 267 268 269 270 271 270 270 270 271 272 274 272 272 273 273 273 273 273 274 275 275 275 275 275 275 276 278 279 278 275 274 273 273 272 271 271 272
Height
5826 5827 5828 5828 5828 5829 5830 5831 5832 5832 5833 5833 5833 5833 5833 5833 5833 5833 5833 5832 5832 5831 5831 5830 5829 5828 5828 5826 5825 5824 5823 5822 5820 5819 5818 5817 5816 5815 5814 5813 5813 5812 5812
5819 5819 5820 5821 5822 5823 5824 5824 5825 5826 5826 5826 5827 5827 5826 5826 5827 5827 5827 5827 5826 5825 5825 5825 5824 5823 5822 5821 5820 5819 5818 5816 5815 5813 5812 5811 5810 5809 5809 5808 5807 5806 5805
5810 5811 5812 5813 5815 5816 5817 5817 5818 5818 5819 5819 5820 5820 5820 5820 5820 5820 5820 5820 5820 5819 5819 5818 5818 5817 5816 5816 5815 5813 5812 5810 5809 5807 5806 5805 5804 5803 5802 5802 5801 5799 5799
5803 5804 5805 5806 5807 5808 5809 5810 5811 5811 5812 5813 5813 5813 5813 5813 5813 5814 5814 5814 5813 5813 5813 5812 5811 5811 5810 5810 5809 5807 5806 5804 5803 5801 5800 5799 5798 5797 5796 5795 5794 5793 5792
5794 5796 5797 5798 5799 5800 5801 5802 5803 5804 5805 5806 5806 5806 5806 5806 5807 5807 5807 5807 5807 5807 5807 5806 5805 5805 5804 5804 5803 5801 5800 5798 5797 5795 5794 5793 5792 5791 5790 5788 5788 5787 5786
5786 5787 5789 5789 5791 5792 5794 5795 5796 5797 5798 5799 5799 5799 5800 5800 5800 5801 5801 5801 5801 5801 5800 5800 5799 5799 5798 5797 5796 5795 5794 5792 5791 5789 5788 5787 5786 5784 5783 5782 5781 5781 5780
5777 5779 5780 5782 5783 5785 5786 5787 5789 5790 5791 5791 5792 5792 5793 5794 5794 5794 5794 5794 5794 5794 5794 5793 5793 5792 5792 5791 5790 5789 5787 5786 5785 5783 5782 5780 5779 5778 5777 5776 5775 5774 5774
5768 5770 5772 5773 5775 5777 5778 5779 5781 5782 5783 5784 5784 5785 5786 5787 5787 5787 5788 5788 5788 5788 5787 5787 5786 5786 5785 5784 5783 5782 5781 5779 5778 5777 5775 5774 5772 5771 5770 5770 5769 5768 5767
5760 5761 5763 5765 5766 5768 5770 5771 5772 5774 5775 5776 5777 5778 5779 5780 5780 5780 5780 5780 5781 5781 5780 5780 5779 5779 5778 5777 5776 5775 5773 5772 5771 5770 5768 5767 5766 5764 5763 5762 5761 5760 5760
5751 5753 5755 5756 5758 5760 5761 5763 5765 5766 5767 5768 5769 5770 5771 5772 5773 5773 5773 5773 5773 5774 5774 5773 5772 5772 5771 5770 5769 5768 5766 5765 5764 5763 5761 5760 5759 5757 5756 5755 5754 5753 5752
5742 5744 5746 5748 5750 5751 5753 5755 5756 5758 5759 5760 5762 5763 5764 5765 5765 5766 5766 5766 5766 5766 5766 5766 5765 5764 5763 5762 5761 5760 5759 5758 5756 5755 5754 5753 5751 5750 5749 5748 5747 5746 5745
5733 5735 5736 5738 5741 5743 5745 5746 5748 5749 5751 5752 5754 5755 5756 5757 5758 5758 5758 5758 5758 5758 5758 5758 5757 5757 5756 5755 5754 5753 5751 5750 5749 5748 5747 5746 5744 5743 5742 5741 5740 5739 5738
5723 5725 5727 5729 5732 5734 5736 5738 5739 5741 5743 5744 5745 5747 5748 5749 5750 5750 5750 5751 5751 5750 5750 5750 5749 5748 5747 5746 5745 5744 5744 5743 5742 5741 5740 5739 5737 5736 5735 5734 5733 5732 5731
5714 5716 5718 5720 5722 5724 5727 5729 5730 5732 5734 5735 5737 5738 5739 5740 5741 5742 5742 5742 5742 5742 5742 5741 5740 5739 5738 5737 5737 5736 5735 5735 5734 5733 5732 5731 5730 5728 5727 5727 5726 5725 5724
5706 5707 5709 5711 5713 5715 5717 5719 5722 5724 5725 5727 5729 5730 5731 5732 5733 5733 5733 5734 5734 5734 5733 5732 5731 5730 5730 5729 5728 5728 5727 5726 5725 5724 5723 5722 5721 5720 5719 5719 5718 5717 5716
5698 5700 5701 5703 5705 5707 5709 5711 5713 5715 5717 5718 5720 5721 5722 5723 5724 5724 5724 5725 5724 5724 5723 5723 5722 5722 5721 5720 5720 5719 5718 5717 5716 5716 5715 5714 5713 5712 5711 5711 5710 5709 5707
5690 5692 5693 5695 5697 5699 5701 5703 5705 5707 5708 5710 5711 5712 5713 5714 5715 5715 5715 5715 5715 5714 5714 5713 5713 5713 5712 5711 5711 5710 5709 5708 5707 5707 5706 5705 5705 5704 5703 5702 5701 5701 5699
5683 5684 5686 5687 5689 5691 5693 5695 5697 5698 5700 5701 5702 5703 5704 5705 5705 5705 5706 5706 5705 5705 5704 5704 5704 5703 5703 5702 5701 5700 5699 5699 5698 5698 5697 5697 5696 5695 5694 5694 5693 5692 5691
5676 5678 5679 5681 5682 5684 5686 5687 5689 5690 5691 5692 5693 5694 5695 5695 5696 5696 5696 5696 5695 5695 5694 5694 5694 5693 5693 5692 5691 5691 5690 5689 5689 5689 5688 5688 5687 5687 5686 5685 5684 5684 5683
5670 5671 5672 5674 5675 5677 5679 5680 5681 5682 5683 5684 5684 5685 5686 5686 5686 5686 5686 5685 5685 5684 5684 5684 5683 5683 5682 5682 5681 5680 5680 5679 5679 5679 5679 5679 5678 5678 5677 5676 5676 5675 5674
5664 5665 5666 5668 5669 5670 5671 5672 5673 5674 5675 5675 5676 5677 5677 5677 5677 5677 5676 5675 5675 5674 5674 5673 5673 5673 5672 5671 5671 5671 5670 5670 5669 5669 5669 5669 5669 5668 5668 5667 5666 5665 5665
5659 5660 5660 5661 5663 5664 5664 5665 5666 5667 5667 5668 5668 5668 5668 5668 5668 5667 5667 5666 5665 5664 5664 5663 5662 5662 5661 5661 5661 5661 5661 5660 5660 5659 5659 5659 5659 5658 5658 5658 5657 5656 5656
5653 5654 5654 5655 5656 5657 5657 5658 5659 5659 5660 5660 5660 5660 5660 5660 5659 5659 5658 5657 5656 5655 5654 5654 5653 5652 5652 5651 5651 5651 5651 5651 5651 5650 5650 5649 5649 5649 5648 5648 5647 5647 5647
5648 5649 5649 5649 5650 5650 5651 5652 5652 5652 5652 5652 5652 5652 5652 5651 5651 5651 5650 5649 5648 5647 5646 5645 5645 5644 5644 5643 5643 5642 5642 5641 5641 5641 5640 5640 5639 5639 5638 5638 5637 5637 5637
5643 5643 5643 5644 5644 5644 5645 5645 5645 5645 5645 5645 5645 5645 5644 5644 5643 5643 5642 5641 5640 5640 5639 5638 5637 5636 5635 5635 5634 5634 5633 5633 5632 5631 5630 5630 5630 5629 5629 5628 5628 5628 5628
5638 5638 5638 5638 5638 5638 5639 5639 5639 5639 5638 5638 5637 5637 5637 5636 5635 5635 5634 5633 5633 5632 5631 5630 5629 5628 5628 5627 5626 5625 5625 5624 5623 5622 5621 5620 5620 5620 5619 5619 5619 5619 5619